User: anonymous   Login
Location: Launois
(49.6535°N, 4.5395°E)
Time: 11:10:11
(UTC+00:00)
Language:

FENGYUN 1C DEB - Orbit

View from above orbital plane
View from above orbital plane
View from above satellite
View from above satellite

Ground track
Ground track

The orbit data is extracted from the following two-line orbital elements,

1 30619U 99025ANA 24279.36991114  .00006525  00000-0  16023-2 0  9994
2 30619  98.3400 308.1608 0219381 284.6425  73.0534 14.39121037927119
Epoch (UTC): 05 October 2024 08:52:40
Eccentricity: 0.0219381
inclination: 98.3400°
perigee height: 605 km
apogee height: 918 km
right ascension of ascending node: 308.1608°
argument of perigee: 284.6425°
revolutions per day: 14.39121037
mean anomaly at epoch: 73.0534°
orbit number at epoch: 92711

The dashed part of the orbit path shows where the satellite is in the earth's shadow,  

DLR